TITAN 3C TRANSTAGE DEB, 43283

Orbit data source: Space-Track

TITAN 3C TRANSTAGE DEB, 43283 is space debris in GEO originally from a launch on Sun, 09 Feb 1969 UTC launched from the Air Force Eastern Test Range (AFETR). Debris objects in space refer to the collection of defunct objects orbiting the Earth. Examples of debris include non-operational satellites, rocket bodies, and fragments generated from explosions, collisions, or faulty payload assembly.

Loading next visibility...
Identifier
43283, 1969-013D
Orbit
GEO
Country
Flag of USUS
Related business
Manufacturer
Martin Marietta
Mission
Spacecraft
Bus & Motor
Unknown
Mass
Unknown
Launch date (UTC)
1969-02-09 (57 years ago)
Launch vehicle
Unknown
Launch site
Air Force Eastern Test Range (AFETR)
Object type
Payload
Rocket body
Debris
Shape & HBR
Unknown
Radar Cross Section
RCS unknown

Expand to show TLE details & history
Last TLE update: 2 days ago

TLE from 2 days ago
0 TITAN 3C TRANSTAGE DEB
1 43283U 69013D   25257.24560721 -.00000143  00000-0  00000-0 0  9996
2 43283   0.6773 101.2894 0338169 128.7621 126.9509  0.93096942 25525
Epoch: 2025-09-14T05:53Z
TLE epoch observation values (Epoch: 2025-09-14T05:53:40.462Z)
Latitude
-0.67068°
Longitude
-81.88692°
Altitude
38,859.616 km
Speed
2.937 km/s
True Right ascension
23h 59m 59s
True Declination
0° 40' 12"
Sunlit
Object was in partial shadow at epoch
Visualization orbit readout
Latitude
Unknown
Longitude
Unknown
Altitude
Unknown
Speed
Unknown
Apparent Right ascension
Unknown
Apparent Declination
Unknown
Sunlit
N/A
Visualization observer readout
Local Sidereal Time
13:52:24
Azimuth
Unknown
Elevation
Unknown
Doppler factor
Unknown
Orbital elements
Apogee altitude
39,425.351 km
Perigee altitude
36,428.82 km
Semi-major axis
44,305.223 km
Eccentricity
0.03382
Inclination
0.6773°
RAAN
101.2894°
Arg. of periapsis
128.7621°
True anomaly
129.96951°
Mean anomaly
126.9509°
Eccentric anomaly
128.46793°
Mean motion
0.23273 °/min
Orbital period
1,546.83 mins
BSTAR
0
Loading maneuver chart data...
Computing Atmospheric mass density...

Documentation

Showing up to 5 results
|